FW4684 Weather Reports


time (UTC)temp
F
wind
direction
speed
knots
gust
knots
rain 1hr
in
rain 24hr
in
rain mn
in
humidity
%
barometer
mb
20260505004026 64 257 0.0 0.0 0.00 0.00 0.00 39 1015.6
20260505003525 64 257 0.0 0.0 0.00 0.00 0.00 39 1015.5
20260505003024 65 278 0.0 0.0 0.00 0.00 0.00 38 1015.5
20260505002521 65 278 0.0 0.0 0.00 0.00 0.00 36 1015.5
20260505002021 66 278 0.0 0.0 0.00 0.00 0.00 34 1015.6
20260505001521 67 278 0.0 0.9 0.00 0.00 0.00 33 1015.5
20260505000516 68 253 0.0 1.7 0.00 0.00 0.00 32 1015.4
20260505000020 68 252 0.0 1.7 0.00 0.00 0.00 32 1015.4
20260504235512 69 271 0.0 1.7 0.00 0.00 0.00 31 1015.4
20260504235011 69 262 0.0 0.9 0.00 0.00 0.00 28 1015.3
20260504234510 70 262 0.0 1.7 0.00 0.00 0.00 28 1015.2
20260504234007 71 230 0.0 3.5 0.00 0.00 0.00 25 1015.2
20260504233506 71 264 0.0 3.5 0.00 0.00 0.00 25 1015.2
20260504233005 72 169 0.9 5.2 0.00 0.00 0.00 24 1015.2
20260504232503 72 224 1.7 4.3 0.00 0.00 0.00 23 1015.1
20260504232000 73 219 0.9 4.3 0.00 0.00 0.00 23 1015.2
20260504231606 73 231 1.7 4.3 0.00 0.00 0.00 22 1015.1
20260504231201 73 217 0.0 7.0 0.00 0.00 0.00 21 1015.0
20260504230602 73 174 0.9 10.4 0.00 0.00 0.00 21 1015.0
20260504230100 74 217 1.7 11.3 0.00 0.00 0.00 20 1015.1
20260504225558 74 236 0.9 7.0 0.00 0.00 0.00 21 1015.0
20260504225058 74 309 2.6 7.0 0.00 0.00 0.00 19 1014.9
20260504224605 75 242 1.7 7.8 0.00 0.00 0.00 19 1015.0
20260504224056 75 228 3.5 7.8 0.00 0.00 0.00 19 1015.0
20260504223554 75 62 2.6 7.0 0.00 0.00 0.00 19 1015.0
20260504223054 75 111 0.9 6.1 0.00 0.00 0.00 21 1015.0
20260504222552 75 154 1.7 9.6 0.00 0.00 0.00 21 1015.0
20260504222051 75 133 2.6 9.6 0.00 0.00 0.00 21 1015.1
20260504221602 75 255 0.9 5.2 0.00 0.00 0.00 21 1015.1
20260504221152 75 140 2.6 7.0 0.00 0.00 0.00 21 1015.0
20260504220552 75 153 1.7 7.8 0.00 0.00 0.00 22 1015.1
20260504220053 75 125 1.7 7.8 0.00 0.00 0.00 20 1015.1
20260504215549 76 46 1.7 9.6 0.00 0.00 0.00 21 1015.0
20260504215049 76 234 2.6 9.6 0.00 0.00 0.00 20 1015.0
20260504214552 76 165 3.5 8.7 0.00 0.00 0.00 19 1015.0
20260504214047 76 174 2.6 8.7 0.00 0.00 0.00 20 1015.0
20260504213548 77 205 2.6 8.7 0.00 0.00 0.00 19 1015.0
20260504213052 77 299 3.5 8.7 0.00 0.00 0.00 19 1014.9
20260504212545 78 163 0.0 5.2 0.00 0.00 0.00 20 1014.9
20260504212045 78 103 1.7 5.2 0.00 0.00 0.00 19 1014.9
20260504211545 77 265 1.7 8.7 0.00 0.00 0.00 22 1014.8
20260504211145 77 232 2.6 7.8 0.00 0.00 0.00 20 1014.9
20260504210545 77 146 3.5 7.8 0.00 0.00 0.00 19 1014.8
20260504210055 77 229 2.6 10.4 0.00 0.00 0.00 20 1015.0
20260504205546 77 219 0.9 6.1 0.00 0.00 0.00 21 1014.9
20260504205046 78 149 1.7 6.1 0.00 0.00 0.00 20 1014.9
20260504204619 77 136 1.7 8.7 0.00 0.00 0.00 20 1015.0
20260504204042 77 246 2.6 12.2 0.00 0.00 0.00 21 1014.9
20260504203544 77 112 6.1 12.2 0.00 0.00 0.00 24 1015.0
20260504203040 77 58 2.6 10.4 0.00 0.00 0.00 22 1015.1
20260504202539 77 242 5.2 10.4 0.00 0.00 0.00 19 1015.2
20260504202040 77 82 0.0 8.7 0.00 0.00 0.00 22 1015.2
20260504201538 78 240 3.5 8.7 0.00 0.00 0.00 20 1015.4
20260504201137 78 122 1.7 4.3 0.00 0.00 0.00 21 1015.4
20260504200537 78 194 0.9 4.3 0.00 0.00 0.00 21 1015.5
20260504200039 78 217 0.9 4.3 0.00 0.00 0.00 22 1015.5
20260504195534 77 285 0.0 8.7 0.00 0.00 0.00 22 1015.7
20260504195033 77 63 2.6 10.4 0.00 0.00 0.00 21 1015.7
20260504194544 78 229 3.5 9.6 0.00 0.00 0.00 21 1015.7
20260504194031 77 91 0.0 7.0 0.00 0.00 0.00 22 1015.8
20260504193633 77 193 2.6 7.0 0.00 0.00 0.00 21 1015.8
20260504193031 77 75 0.9 6.1 0.00 0.00 0.00 23 1015.8
20260504192531 77 115 0.9 7.0 0.00 0.00 0.00 21 1016.1
20260504192127 77 241 0.9 10.4 0.00 0.00 0.00 21 1016.1
20260504191526 77 132 2.6 6.1 0.00 0.00 0.00 21 1016.0
20260504191125 77 106 1.7 5.2 0.00 0.00 0.00 21 1016.3
20260504190525 77 145 0.0 5.2 0.00 0.00 0.00 22 1016.3
20260504190025 77 238 0.9 6.1 0.00 0.00 0.00 22 1016.2
20260504185523 76 154 0.9 4.3 0.00 0.00 0.00 21 1016.3
20260504185021 76 195 1.7 7.0 0.00 0.00 0.00 21 1016.4
20260504184521 77 103 2.6 7.0 0.00 0.00 0.00 19 1016.6
20260504184023 77 229 0.9 8.7 0.00 0.00 0.00 19 1016.6
20260504183519 76 258 1.7 8.7 0.00 0.00 0.00 19 1016.6
20260504183018 77 242 1.7 8.7 0.00 0.00 0.00 18 1016.7
20260504182519 77 144 1.7 7.0 0.00 0.00 0.00 19 1016.8
20260504182015 77 313 1.7 7.0 0.00 0.00 0.00 18 1016.9
20260504181513 76 275 0.9 4.3 0.00 0.00 0.00 18 1016.9
20260504181112 75 245 1.7 5.2 0.00 0.00 0.00 21 1017.0
20260504180513 75 195 0.9 7.0 0.00 0.00 0.00 19 1017.0
20260504180011 75 120 0.9 7.0 0.00 0.00 0.00 20 1017.1
20260504175511 75 53 1.7 7.8 0.00 0.00 0.00 22 1017.2
20260504175008 75 160 1.7 7.8 0.00 0.00 0.00 21 1017.2
20260504174508 75 250 2.6 7.8 0.00 0.00 0.00 22 1017.2
20260504174007 75 118 0.9 7.0 0.00 0.00 0.00 21 1017.3
20260504173506 75 259 1.7 9.6 0.00 0.00 0.00 21 1017.3
20260504173004 75 226 4.3 9.6 0.00 0.00 0.00 20 1017.4
20260504172502 74 226 3.5 8.7 0.00 0.00 0.00 20 1017.3
20260504172101 76 139 0.0 5.2 0.00 0.00 0.00 22 1017.3
20260504171600 76 266 0.9 6.1 0.00 0.00 0.00 22 1017.4
20260504171058 74 221 3.5 7.8 0.00 0.00 0.00 23 1017.5
20260504170557 75 247 2.6 7.8 0.00 0.00 0.00 22 1017.5
20260504151040 67 50 2.6 7.0 0.00 0.00 0.00 30 1019.8
20260504150541 67 41 2.6 7.0 0.00 0.00 0.00 30 1019.8
20260504141034 64 243 0.0 0.0 0.00 0.00 0.00 31 1019.9
20260504140534 64 214 0.0 0.0 0.00 0.00 0.00 31 1019.9
20260504130531 57 146 0.0 0.0 0.00 0.00 0.00 43 1019.7
20260504110518 37 240 0.0 0.0 0.00 0.00 0.00 44 1019.7
20260504100511 37 248 0.0 0.0 0.00 0.00 0.00 49 1019.7
20260504082001 38 251 0.0 0.0 0.00 0.00 0.00 56 1019.6
20260504081559 38 251 0.0 0.0 0.00 0.00 0.00 55 1019.6
20260504081058 38 251 0.0 0.0 0.00 0.00 0.00 55 1019.6
20260504045532 42 39 0.0 0.0 0.00 0.00 0.00 65 1020.0
20260504045031 42 39 0.0 0.0 0.00 0.00 0.00 65 1019.9
20260504044538 42 39 0.0 0.0 0.00 0.00 0.00 65 1020.0
20260504044030 42 253 0.0 0.0 0.00 0.00 0.00 64 1019.8
20260504043529 43 253 0.0 0.0 0.00 0.00 0.00 64 1019.7
20260504043029 43 253 0.0 0.0 0.00 0.00 0.00 64 1019.8
20260504042528 43 253 0.0 0.0 0.00 0.00 0.00 64 1019.7
20260504042031 43 253 0.0 0.0 0.00 0.00 0.00 64 1019.7
20260504041528 43 253 0.0 0.0 0.00 0.00 0.00 65 1019.7
20260504041024 43 253 0.0 0.0 0.00 0.00 0.00 64 1019.9
20260504040025 43 253 0.0 0.0 0.00 0.00 0.00 63 1019.8
20260504035522 44 253 0.0 0.0 0.00 0.00 0.00 63 1019.7
20260504035022 44 253 0.0 0.0 0.00 0.00 0.00 63 1019.5
20260504034520 44 253 0.0 0.0 0.00 0.00 0.00 62 1019.5
20260504034019 44 245 0.0 0.0 0.00 0.00 0.00 63 1019.5
20260504033520 44 243 0.0 0.0 0.00 0.00 0.00 63 1019.5
20260504033019 44 242 0.0 0.0 0.00 0.00 0.00 63 1019.6
20260504032516 45 283 0.0 0.0 0.00 0.00 0.00 62 1019.4
20260504032017 45 283 0.0 0.0 0.00 0.00 0.00 62 1019.6
20260504031515 45 282 0.0 0.0 0.00 0.00 0.00 62 1019.6
20260504031012 45 282 0.0 0.0 0.00 0.00 0.00 61 1019.6
20260504030013 46 282 0.0 0.0 0.00 0.00 0.00 60 1019.6
20260504025511 46 282 0.0 0.0 0.00 0.00 0.00 59 1019.7
20260504025010 46 282 0.0 0.0 0.00 0.00 0.00 59 1019.7
20260504024509 46 282 0.0 0.0 0.00 0.00 0.00 60 1019.7
20260504024007 47 282 0.0 0.0 0.00 0.00 0.00 60 1019.8
20260504023506 47 282 0.0 0.0 0.00 0.00 0.00 59 1019.8
20260504023008 47 282 0.0 0.0 0.00 0.00 0.00 60 1019.7
20260504022504 47 282 0.0 0.0 0.00 0.00 0.00 57 1019.7
20260504022004 47 282 0.0 0.0 0.00 0.00 0.00 57 1019.6
20260504021502 48 282 0.0 0.0 0.00 0.00 0.00 58 1019.5
20260504021000 48 282 0.0 0.0 0.00 0.00 0.00 57 1019.7
20260504020100 48 282 0.0 0.0 0.00 0.00 0.00 56 1019.4
20260504015559 49 282 0.0 0.0 0.00 0.00 0.00 57 1019.2
20260504015056 49 282 0.0 0.0 0.00 0.00 0.00 56 1019.1
20260504014613 49 282 0.0 0.0 0.00 0.00 0.00 57 1019.0
20260504014055 49 282 0.0 0.0 0.00 0.00 0.00 55 1018.8
20260504013557 49 282 0.0 0.0 0.00 0.00 0.00 55 1018.7
20260504013054 50 282 0.0 0.0 0.00 0.00 0.00 54 1018.6
20260504012552 50 282 0.0 0.0 0.00 0.00 0.00 53 1018.7
20260504012050 50 282 0.0 0.0 0.00 0.00 0.00 54 1018.7
20260504011552 51 282 0.0 0.0 0.00 0.00 0.00 52 1018.6
20260504011047 51 282 0.0 0.0 0.00 0.00 0.00 51 1018.5
20260504010050 52 284 0.0 0.0 0.00 0.00 0.00 50 1018.4
20260504005544 52 284 0.0 0.0 0.00 0.00 0.00 49 1018.4
20260504005043 53 284 0.0 0.0 0.00 0.00 0.00 47 1018.3
20260504004542 53 284 0.0 0.0 0.00 0.00 0.00 47 1018.3